"Pseudo-MPEC" for P11JzOd

Created 2023 Sep 20 17:22:28 UT using Find_Orb

Click here for an explanation of pseudo-MPECs

 
 Astrometry: 
     P11JzOd* C2023 09 15s?jPDEpO/450bkYpk:W1n$_pAstrometryqsCd[/FYTp.=5CSEaoF51
     P11JzOd  C2023 09 156te'4vl]T+SK$vgClRm\`cD$xAWx)redacted;L4WkpFA)uH\!2hF51
     P11JzOd  C2023 09 15IXEclickUK'5%tgGQe*WTa$aC@jrhsI8LKa(vBxeGrSn#rx4:6*!F51
     P11JzOd  C2023 09 153%l+mLYp?uCjhere\Kf$I,%foru9tx1L2l@HvB5!h@I:S?YNbIdgF51
     P11JzOd  C2023 09 15jhjPHeivcTHOFCQC?fx-a!!explanation:A5C]8-K\Po2x[!txVF51

Station data:
(F51) Pan-STARRS 1, Haleakala  (N20.707234 W156.255910)  US/Hawaii.
   Observers J. Bulger, T. Lowe, A. Schultz, M. Willman. Measurers K.
   Chambers, S. Chastel, T. de Boer, L. Denneau, J. Fairlamb, H. Flewelling,
   M. Huber, C.-C. Lin, E. Magnier, Y. Ramanjooloo, R. Wainscoat, R. Weryk.
   1.8-m Ritchey-Chrétien + CCD.

Orbital elements:  P11JzOd
   Perihelion 2023 Jul 17.31654 +/- 46.9 TT =  7:35:48 (JD 2460142.81654)
Epoch 2023 Sep 15.0 TT = JDT 2460202.5   Earth MOID: 0.0118      AutoNEOCP
M  42.48691450 +/- 29               (J2000 ecliptic)
n   0.71187081 +/- 0.12             Peri.  138.57486 +/- 70
a   1.24222974 +/- 0.14             Node   146.05908 +/- 70
e   0.2492045 +/- 0.114             Incl.    3.94697 +/- 3.4
P   1.38/505.70d           H 26.49  G  0.15   U 11.3  SR
q 0.93266041 +/- 0.114    Q 1.55179907 +/- 0.418
From 5 observations 2023 Sept. 15 (2.2 hr); mean residual 0".15
Residuals in arcseconds: 
230915 F51  .04-  .19+    230915 F51  .17+  .21-    230915 F51  .04+  .24+    
230915 F51  .10-  .05-    230915 F51  .07-  .16-    

Ephemerides (geocentric):
Date (UTC) HH   RA             Dec           delta  r     elong  mag " sig PA
---- --------  ------------   ------------  ------ ------ -----  --- --------
2023 09 20 17  00 03 10.973   -28 14 09.66  .08621 1.0817 152.7 22.5 7731 173
2023 09 20 18  00 03 12.301   -28 12 32.83  .08639 1.0818 152.7 22.5 7852 173
2023 09 20 19  00 03 13.622   -28 10 56.28  .08656 1.0820 152.7 22.5 7975 173
2023 09 20 20  00 03 14.936   -28 09 20.01  .08674 1.0821 152.7 22.5 8098 173
2023 09 20 21  00 03 16.244   -28 07 44.01  .08692 1.0823 152.8 22.5 8223 173
2023 09 20 22  00 03 17.545   -28 06 08.29  .08710 1.0825 152.8 22.5 8349 173
2023 09 20 23  00 03 18.839   -28 04 32.84  .08727 1.0826 152.8 22.5 8476 173
2023 09 21 00  00 03 20.127   -28 02 57.67  .08745 1.0828 152.8 22.5 8605 173
2023 09 21 01  00 03 21.408   -28 01 22.77  .08763 1.0829 152.8 22.5 8734 173
2023 09 21 02  00 03 22.684   -27 59 48.13  .08781 1.0831 152.8 22.5 8865 173
2023 09 21 03  00 03 23.952   -27 58 13.77  .08798 1.0832 152.8 22.5 8997 173
2023 09 21 04  00 03 25.215   -27 56 39.67  .08816 1.0834 152.9 22.5 9130 173
2023 09 21 05  00 03 26.471   -27 55 05.83  .08834 1.0836 152.9 22.5 9264 173
2023 09 21 06  00 03 27.721   -27 53 32.25  .08852 1.0837 152.9 22.5 9399 173
2023 09 21 07  00 03 28.965   -27 51 58.94  .08869 1.0839 152.9 22.6 9536 173
2023 09 21 08  00 03 30.202   -27 50 25.89  .08887 1.0840 152.9 22.6 9674 173
2023 09 21 09  00 03 31.434   -27 48 53.09  .08905 1.0842 152.9 22.6 9813 173
2023 09 21 10  00 03 32.660   -27 47 20.55  .08923 1.0843 152.9 22.6 9953 173
2023 09 21 11  00 03 33.879   -27 45 48.27  .08941 1.0845 152.9 22.6 168' 173
2023 09 21 12  00 03 35.093   -27 44 16.23  .08958 1.0847 153.0 22.6 171' 173
2023 09 21 13  00 03 36.301   -27 42 44.45  .08976 1.0848 153.0 22.6 173' 173
2023 09 21 14  00 03 37.503   -27 41 12.93  .08994 1.0850 153.0 22.6 175' 173
2023 09 21 15  00 03 38.700   -27 39 41.64  .09012 1.0851 153.0 22.6 178' 173
2023 09 21 16  00 03 39.890   -27 38 10.61  .09030 1.0853 153.0 22.6 180' 173
2023 09 21 17  00 03 41.075   -27 36 39.82  .09048 1.0855 153.0 22.6 183' 173
2023 09 21 18  00 03 42.255   -27 35 09.28  .09065 1.0856 153.0 22.6 185' 173
2023 09 21 19  00 03 43.428   -27 33 38.98  .09083 1.0858 153.0 22.6 188' 173
2023 09 21 20  00 03 44.597   -27 32 08.92  .09101 1.0859 153.0 22.6 190' 173
2023 09 21 21  00 03 45.759   -27 30 39.11  .09119 1.0861 153.1 22.6 193' 173
2023 09 21 22  00 03 46.917   -27 29 09.53  .09137 1.0862 153.1 22.6 196' 173
2023 09 21 23  00 03 48.069   -27 27 40.18  .09155 1.0864 153.1 22.6 198' 172
2023 09 22 00  00 03 49.215   -27 26 11.08  .09173 1.0866 153.1 22.6 201' 172
2023 09 22 01  00 03 50.356   -27 24 42.21  .09191 1.0867 153.1 22.6 204' 172
2023 09 22 02  00 03 51.492   -27 23 13.57  .09209 1.0869 153.1 22.6 206' 172
2023 09 22 03  00 03 52.623   -27 21 45.16  .09227 1.0870 153.1 22.6 209' 172
2023 09 22 04  00 03 53.749   -27 20 16.99  .09244 1.0872 153.1 22.6 212' 172
2023 09 22 05  00 03 54.869   -27 18 49.04  .09262 1.0874 153.1 22.6 215' 172
2023 09 22 06  00 03 55.984   -27 17 21.32  .09280 1.0875 153.2 22.6 217' 172
2023 09 22 07  00 03 57.094   -27 15 53.83  .09298 1.0877 153.2 22.7 220' 172
2023 09 22 08  00 03 58.199   -27 14 26.57  .09316 1.0878 153.2 22.7 223' 172
2023 09 22 09  00 03 59.300   -27 12 59.52  .09334 1.0880 153.2 22.7 226' 172
2023 09 22 10  00 04 00.395   -27 11 32.70  .09352 1.0881 153.2 22.7 229' 172
2023 09 22 11  00 04 01.485   -27 10 06.11  .09370 1.0883 153.2 22.7 232' 172
2023 09 22 12  00 04 02.571   -27 08 39.73  .09388 1.0885 153.2 22.7 235' 172
2023 09 22 13  00 04 03.651   -27 07 13.57  .09406 1.0886 153.2 22.7 238' 172
2023 09 22 14  00 04 04.727   -27 05 47.63  .09424 1.0888 153.2 22.7 241' 172
2023 09 22 15  00 04 05.798   -27 04 21.90  .09442 1.0889 153.2 22.7 244' 172
2023 09 22 16  00 04 06.864   -27 02 56.39  .09460 1.0891 153.3 22.7 247' 172